sat.trackr.live / text

‹ back to catalog

STARLINK-33747

NORAD 63444 · 2025-069M

PAYLOAD ACTIVE UNKNOWN

§ Identity

Operator
Country
US
Launch date
2025-04-04
Launch site
AFWTR
Launch vehicle
Mass (kg)
RCS (m²)

Purposes: comms

External: N2YO · Heavens-Above · Gunter

§ Orbital elements

Epoch: 2026-05-24T17:16:47.564544Z

Period
93.37 min
Inclination
53.1583°
Eccentricity
0.0001369
Mean motion
15.42185999 rev/d
Perigee alt
438.7 km
Apogee alt
440.6 km
Semi-major
6,817.8 km
B*
9.1936e-4
RAAN
146.6003°
Arg perigee
88.5608°
Mean anomaly
271.5555°
Rev number
6,502

§ Raw data

STARLINK-337471 63444U 25069M   26144.71999496  .00039838  00000+0  91936-3 0  99952 63444  53.1583 146.6003 0001369  88.5608 271.5555 15.42185999 65028

JSON: /api/v1/satellites/63444 · /tle

For live sub-satellite position, see the globe view (requires WebGL).

§ Visibility from observer

Set your observer location to see the next 7 days of passes ≥ 10°. The values pass through the URL so the page stays shareable.

No JS? Fill the form by hand. The geolocation button needs JavaScript.